timestamp,surface_pressure_avg,surface_temp_avg,battery_voltage,lat,long
2019-12-08 00:09:01+00:00,242.1481,4.7,12.41,47.84626,-54.09684
2019-12-08 00:19:01+00:00,236.9847,4.7,12.41,47.84626,-54.09684
2019-12-08 00:29:01+00:00,235.7798,4.7,12.41,47.84626,-54.09684
2019-12-08 00:39:01+00:00,231.1448,4.7,12.41,47.84626,-54.09684
2019-12-08 00:49:01+00:00,225.2848,4.7,12.41,47.84626,-54.09684
2019-12-08 00:59:01+00:00,225.4064,4.7,12.41,47.84626,-54.09684
2019-12-08 01:09:01+00:00,218.8031,4.7,12.41,47.84626,-54.09684
2019-12-08 01:19:01+00:00,214.2564,4.7,12.41,47.84626,-54.09684
2019-12-08 01:29:01+00:00,217.7364,4.71,12.41,47.84626,-54.09684
2019-12-08 01:39:01+00:00,216.3848,4.75,12.41,47.84626,-54.09684
2019-12-08 01:49:01+00:00,207.0597,4.7,12.41,47.84626,-54.09684
2019-12-08 01:59:01+00:00,205.7348,4.64,12.41,47.84626,-54.09684
2019-12-08 02:09:01+00:00,211.7297,4.7,12.41,47.84626,-54.09684
2019-12-08 02:19:01+00:00,205.5265,4.7,12.41,47.84626,-54.09684
2019-12-08 02:29:01+00:00,195.5931,4.69,12.41,47.84626,-54.09684
2019-12-08 02:39:01+00:00,202.9431,4.7,12.41,47.84626,-54.09684
2019-12-08 02:49:01+00:00,208.3932,4.8,12.41,47.84626,-54.09684
2019-12-08 02:59:01+00:00,199.1148,4.8,12.41,47.84626,-54.09684
2019-12-08 03:09:01+00:00,197.6631,4.8,12.41,47.84626,-54.09684
2019-12-08 03:19:01+00:00,209.5631,4.8,12.41,47.84626,-54.09684
2019-12-08 03:29:01+00:00,209.7931,4.84,12.41,47.84626,-54.09684
2019-12-08 03:39:01+00:00,206.0298,4.89,12.41,47.84626,-54.09684
2019-12-08 03:49:01+00:00,209.2181,4.9,12.41,47.84626,-54.09684
2019-12-08 03:59:01+00:00,216.7598,4.93,12.41,47.84626,-54.09684
2019-12-08 04:09:01+00:00,219.0547,5.0,12.41,47.84626,-54.09684
2019-12-08 04:19:01+00:00,222.4848,5.06,12.41,47.84626,-54.09684
2019-12-08 04:29:01+00:00,226.3781,5.16,12.41,47.84626,-54.09684
2019-12-08 04:39:01+00:00,228.2515,5.19,12.41,47.84626,-54.09684
2019-12-08 04:49:01+00:00,231.9881,5.1,12.41,47.84626,-54.09684
2019-12-08 04:59:01+00:00,238.5081,5.1,12.41,47.84626,-54.09684
2019-12-08 05:09:01+00:00,238.8497,5.1,12.41,47.84626,-54.09684
2019-12-08 05:19:01+00:00,240.2497,5.1,12.41,47.84626,-54.09684
2019-12-08 05:29:01+00:00,248.0181,5.1,12.41,47.84626,-54.09684
2019-12-08 05:39:01+00:00,254.6864,5.18,12.41,47.84626,-54.09684
2019-12-08 05:49:01+00:00,253.7214,5.2,12.41,47.84626,-54.09684
2019-12-08 05:59:01+00:00,258.498,5.2,12.41,47.84626,-54.09684
2019-12-08 06:09:01+00:00,271.0898,5.2,12.41,47.84626,-54.09684
2019-12-08 06:19:01+00:00,275.8814,5.2,12.41,47.84626,-54.09684
2019-12-08 06:29:01+00:00,273.5081,5.1,12.41,47.84626,-54.09684
2019-12-08 06:39:01+00:00,281.5547,5.21,12.41,47.84626,-54.09684
2019-12-08 06:49:01+00:00,294.1514,5.29,12.41,47.84626,-54.09684
2019-12-08 06:59:01+00:00,299.063,5.19,12.41,47.84626,-54.09684
2019-12-08 07:09:01+00:00,299.6464,4.84,12.41,47.84626,-54.09684
2019-12-08 07:19:01+00:00,306.7529,4.93,12.41,47.84626,-54.09684
2019-12-08 07:29:01+00:00,317.8747,4.9,12.41,47.84626,-54.09684
2019-12-08 07:39:01+00:00,318.6613,4.7,12.41,47.84626,-54.09684
2019-12-08 07:49:01+00:00,317.2764,4.8,12.41,47.84626,-54.09684
2019-12-08 07:59:01+00:00,327.003,5.0,12.41,47.84626,-54.09684
2019-12-08 08:09:01+00:00,332.5079,5.0,12.41,47.84626,-54.09684
2019-12-08 08:19:01+00:00,325.2463,4.8,12.41,47.84626,-54.09684
2019-12-08 08:29:01+00:00,319.7063,4.9,12.41,47.84626,-54.09684
2019-12-08 08:39:01+00:00,327.5997,5.1,12.41,47.84626,-54.09684
2019-12-08 08:49:01+00:00,330.4431,4.87,12.41,47.84626,-54.09684
2019-12-08 08:59:01+00:00,320.7546,4.58,12.41,47.84626,-54.09684
2019-12-08 09:09:01+00:00,322.9329,4.73,12.41,47.84626,-54.09684
2019-12-08 09:19:01+00:00,331.4413,5.15,12.41,47.84626,-54.09684
2019-12-08 09:29:01+00:00,325.5764,4.84,12.41,47.84626,-54.09684
2019-12-08 09:39:01+00:00,317.668,4.6,12.41,47.84626,-54.09684
2019-12-08 09:49:01+00:00,322.653,4.69,12.41,47.84626,-54.09684
2019-12-08 09:59:01+00:00,324.33799999999997,4.76,12.41,47.84626,-54.09684
2019-12-08 10:09:01+00:00,319.4397,4.6,12.41,47.84626,-54.09684
2019-12-08 10:19:01+00:00,318.6213,4.6,12.41,47.84626,-54.09684
2019-12-08 10:29:01+00:00,326.8663,4.5,12.41,47.84626,-54.09684
2019-12-08 10:39:01+00:00,323.358,4.5,12.41,47.84626,-54.09684
2019-12-08 10:49:01+00:00,316.3413,4.4,12.41,47.84626,-54.09684
2019-12-08 10:59:01+00:00,316.4514,4.4,12.41,47.84626,-54.09684
2019-12-08 11:09:01+00:00,318.2563,4.44,12.41,47.84626,-54.09684
2019-12-08 11:19:01+00:00,312.5413,4.4,12.41,47.84626,-54.09684
2019-12-08 11:29:01+00:00,304.6813,4.4,12.41,47.84626,-54.09684
2019-12-08 11:39:01+00:00,299.3747,4.4,12.41,47.84626,-54.09684
2019-12-08 11:49:01+00:00,295.5281,4.4,12.41,47.84626,-54.09684
2019-12-08 11:59:01+00:00,287.3697,4.38,12.41,47.84626,-54.09684
2019-12-08 12:09:01+00:00,281.848,4.3,12.41,47.84626,-54.09684
2019-12-08 12:19:01+00:00,274.698,4.38,12.41,47.84626,-54.09684
2019-12-08 12:29:01+00:00,269.0064,4.41,12.41,47.84626,-54.09684
2019-12-08 12:39:01+00:00,261.4281,4.4,12.41,47.84626,-54.09684
2019-12-08 12:49:01+00:00,255.2881,4.39,12.41,47.84626,-54.09684
2019-12-08 12:59:01+00:00,251.1731,4.4,12.41,47.84626,-54.09684
2019-12-08 13:09:01+00:00,245.1297,4.4,12.41,47.84626,-54.09684
2019-12-08 13:19:01+00:00,239.8597,4.47,13.68,47.84626,-54.09684
2019-12-08 13:29:01+00:00,236.7248,4.5,13.68,47.84626,-54.09684
2019-12-08 13:39:01+00:00,236.7798,4.66,13.68,47.84626,-54.09684
2019-12-08 13:49:01+00:00,234.2047,4.7,13.68,47.84626,-54.09684
2019-12-08 13:59:01+00:00,229.7781,4.7,13.68,47.84626,-54.09684
2019-12-08 14:09:01+00:00,227.3031,4.7,13.68,47.84626,-54.09684
2019-12-08 14:19:01+00:00,227.5764,4.61,14.4,47.84626,-54.09684
2019-12-08 14:29:01+00:00,226.9797,4.6,14.4,47.84626,-54.09684
2019-12-08 14:39:01+00:00,227.3014,4.59,14.4,47.84626,-54.09684
2019-12-08 14:49:01+00:00,223.9198,4.56,14.4,47.84626,-54.09684
2019-12-08 14:59:01+00:00,217.1881,4.5,14.4,47.84626,-54.09684
2019-12-08 15:09:01+00:00,215.9831,4.5,14.4,47.84626,-54.09684
2019-12-08 15:19:01+00:00,219.4464,4.53,14.72,47.84626,-54.09684
2019-12-08 15:29:01+00:00,219.8665,4.58,14.72,47.84626,-54.09684
2019-12-08 15:39:01+00:00,216.3464,4.6,14.72,47.84626,-54.09684
2019-12-08 15:49:01+00:00,214.8398,4.6,14.72,47.84626,-54.09684
2019-12-08 15:59:01+00:00,215.9131,4.67,14.72,47.84626,-54.09684
2019-12-08 16:09:01+00:00,213.9081,4.7,14.72,47.84626,-54.09684
2019-12-08 16:19:01+00:00,216.5731,4.7,14.72,47.84626,-54.09684
2019-12-08 16:29:01+00:00,223.2381,4.7,14.72,47.84626,-54.09684
2019-12-08 16:39:01+00:00,224.6547,4.7,14.72,47.84626,-54.09684
2019-12-08 16:49:01+00:00,222.8781,4.7,14.72,47.84626,-54.09684
2019-12-08 16:59:01+00:00,227.2648,4.7,14.72,47.84626,-54.09684
2019-12-08 17:09:01+00:00,235.9348,4.82,14.72,47.84626,-54.09684
2019-12-08 17:19:01+00:00,236.7314,4.9,14.64,47.84626,-54.09684
2019-12-08 17:29:01+00:00,235.0731,4.9,14.64,47.84626,-54.09684
2019-12-08 17:39:01+00:00,243.2431,4.97,14.64,47.84626,-54.09684
2019-12-08 17:49:01+00:00,251.0314,5.0,14.64,47.84626,-54.09684
2019-12-08 17:59:01+00:00,252.7314,5.0,14.64,47.84626,-54.09684
2019-12-08 18:09:01+00:00,251.3664,5.0,14.64,47.84626,-54.09684
2019-12-08 18:19:01+00:00,258.0814,5.0,14.48,47.84626,-54.09684
2019-12-08 18:29:01+00:00,262.8997,5.0,14.48,47.84626,-54.09684
2019-12-08 18:39:01+00:00,265.0048,5.0,14.48,47.84626,-54.09684
2019-12-08 18:49:01+00:00,269.5797,5.0,14.48,47.84626,-54.09684
2019-12-08 18:59:01+00:00,276.8664,5.08,14.48,47.84626,-54.09684
2019-12-08 19:09:01+00:00,279.2347,5.2,14.48,47.84626,-54.09684
2019-12-08 19:19:01+00:00,282.6863,5.1,14.0,47.84626,-54.09684
2019-12-08 19:29:01+00:00,291.5814,5.03,14.0,47.84626,-54.09684
2019-12-08 19:39:01+00:00,296.5164,5.08,14.0,47.84626,-54.09684
2019-12-08 19:49:01+00:00,295.7363,4.99,14.0,47.84626,-54.09684
2019-12-08 19:59:01+00:00,300.2814,4.63,14.0,47.84626,-54.09684
2019-12-08 20:09:01+00:00,305.928,4.5,14.0,47.84626,-54.09684
2019-12-08 20:19:01+00:00,302.8747,4.6,13.37,47.84626,-54.09684
2019-12-08 20:29:01+00:00,304.298,4.4,13.37,47.84626,-54.09684
2019-12-08 20:39:01+00:00,312.2614,4.43,13.37,47.84626,-54.09684
2019-12-08 20:49:01+00:00,312.4813,4.3,13.37,47.84626,-54.09684
2019-12-08 20:59:01+00:00,308.928,4.2,13.37,47.84626,-54.09684
2019-12-08 21:09:01+00:00,311.3897,4.25,13.37,47.84626,-54.09684
2019-12-08 21:19:01+00:00,315.4247,4.39,13.05,47.84626,-54.09684
2019-12-08 21:29:01+00:00,311.1281,4.45,13.05,47.84626,-54.09684
2019-12-08 21:39:01+00:00,314.2013,4.79,13.05,47.84626,-54.09684
2019-12-08 21:49:01+00:00,314.1863,5.1,13.05,47.84626,-54.09684
2019-12-08 21:59:01+00:00,313.33799999999997,5.08,13.05,47.84626,-54.09684
2019-12-08 22:09:01+00:00,310.0314,5.0,13.05,47.84626,-54.09684
2019-12-08 22:19:01+00:00,309.7197,4.9,12.81,47.84626,-54.09684
2019-12-08 22:29:01+00:00,307.7697,4.8,12.81,47.84626,-54.09684
2019-12-08 22:39:01+00:00,302.1947,4.57,12.81,47.84626,-54.09684
2019-12-08 22:49:01+00:00,300.3947,4.15,12.81,47.84626,-54.09684
2019-12-08 22:59:01+00:00,300.3797,3.9,12.81,47.84626,-54.09684
2019-12-08 23:09:01+00:00,295.0497,4.2,12.81,47.84626,-54.09684
2019-12-08 23:19:01+00:00,286.9363,4.04,12.81,47.84626,-54.09684
2019-12-08 23:29:01+00:00,282.0647,4.34,12.81,47.84626,-54.09684
2019-12-08 23:39:01+00:00,279.5931,4.39,12.81,47.84626,-54.09684
2019-12-08 23:49:01+00:00,270.2148,4.3,12.81,47.84626,-54.09684
2019-12-08 23:59:01+00:00,260.2631,4.1,12.81,47.84626,-54.09684
